Location: Howard City Library
(37.4684°N, 96.2639°W)
Time: 20:39:49
(UTC+00:00)

Cosmos 1603 - Pass Details

Date: 18 February 2020
Orbit: 833 x 858 km, 71.0° (Epoch: 29 March)

Event Time Altitude Azimuth Distance (km) Brightness Sun altitude
Exits shadow 11:25:17 13° 204° (SSW) 2,236 5.7 -21.7°
Maximum altitude 11:30:21 83° 292° (WNW) 862 3.6 -20.7°
Drops below altitude 10° 11:36:04 10° 21° (NNE) 2,477 6.4 -19.5°
Sets 11:38:31 0° 22° (NNE) 3,412 7.1 -19.1°
